Location: *
(43.5489°N, 0.2961°E)
Time: 21:59:35
(UTC+00:00)

Daily predictions for brighter satellites

Satellite Brightness Start Highest point End
(mag) Time Altitude Azimuth Time Altitude Azimuth Time Altitude Azimuth
Cosmos 2074 Rocket 4.1 18:23:35 10° N 18:29:46 58° ENE 18:35:51 10° SSE
Cosmos 1707 4.3 18:30:04 10° NNE 18:32:45 17° ENE 18:35:24 10° ESE
Cosmos 2333 4.2 18:31:04 10° NNW 18:36:44 67° ENE 18:42:23 10° SE
Aureole 1 Rocket 3.4 18:33:26 10° NNW 18:38:38 51° ENE 18:42:34 10° SE
Cosmos 2219 Rocket 2.4 18:37:21 10° NNW 18:42:48 51° ENE 18:48:15 10° SE
Cosmos 1939 Rocket 2.8 18:42:10 10° SSE 18:45:58 62° ENE 18:49:48 10° N
COSMOS 2428 2.9 18:40:59 10° NNW 18:46:35 57° ENE 18:52:10 10° SE
FREGAT/IRIS 3.5 18:45:36 10° SE 18:47:59 25° ENE 18:50:23 10° NNE
Cosmos 2322 3.9 18:42:58 10° NNW 18:48:44 82° WSW 18:54:26 10° SSE
NOAA 11 4.2 18:43:44 10° SSE 18:49:12 72° ENE 18:54:41 10° N
Cosmos 405 4.4 18:48:12 10° NNW 18:51:32 41° W 18:54:49 10° SSW
ATLAS 2AS CENTAUR R/B 3.0 18:43:55 10° NNW 18:51:36 64° NE 18:58:38 10° SE
Cosmos 2154 Rocket 4.2 18:46:30 10° N 18:52:32 51° ENE 18:58:33 10° SSE
CZ-2D R/B 3.2 18:49:44 10° SSE 18:53:31 89° WSW 18:57:21 10° NNW
BREEZE-M DEB (TANK) 3.6 18:52:19 10° W 18:54:28 29° SSW 18:58:54 10° SSE
Cosmos 2360 Rocket 3.4 18:49:20 10° NW 18:54:42 44° WSW 19:00:01 10° S
Okean 1 Rocket 3.1 18:56:44 10° S 19:00:58 57° E 19:05:15 10° NNE
MONITOR-E 3.8 19:01:31 10° SSE 19:04:18 73° ENE 19:07:06 10° N
ASTEX 1 3.6 19:00:32 10° NNE 19:05:14 45° E 19:09:54 10° SSE
SL-8 R/B 4.0 19:00:58 10° W 19:05:44 65° NNW 19:10:24 11° ENE
Meteor 1-12 Rocket 4.2 19:00:27 10° S 19:06:12 87° E 19:11:54 10° N
Resurs 01 Rocket 3.3 19:05:43 14° E 19:06:49 16° ENE 19:09:28 10° NNE
H-2A R/B 2.9 19:04:22 15° ESE 19:07:37 29° ENE 19:11:54 10° N
Cosmos 2219 3.6 19:02:24 10° S 19:07:41 39° ESE 19:12:59 10° NE
Cosmos 2227 Rocket 3.2 19:03:33 10° SSE 19:07:51 23° E 19:12:09 10° NE
Cosmos 2184 Rocket 4.2 19:01:41 10° N 19:07:55 77° W 19:14:11 10° S
Cosmos 2251 Rocket 4.2 19:04:28 10° NNW 19:09:46 60° WSW 19:15:02 10° S
Cosmos 1842 4.4 19:09:31 10° NNW 19:13:21 48° W 19:17:08 10° SSW
GP-B 3.2 19:09:10 10° N 19:13:37 79° W 19:18:02 10° S
BREEZE M DEB (TANK) 3.2 19:13:05 10° WNW 19:15:04 28° N 19:17:51 12° ENE
ARGOS 3.8 19:12:30 17° ESE 19:16:02 35° ENE 19:20:53 10° N
SAR-Lupe-2 3.4 19:14:16 10° NNE 19:17:52 80° ESE 19:21:26 10° S
Cosmos 1544 3.1 19:14:28 10° SSW 19:18:03 77° W 19:21:40 10° N
USA 186 2.0 19:16:25 19° SE 19:18:37 51° ENE 19:21:58 10° N
Cosmos 2297 Rocket 2.9 19:13:50 10° SSE 19:18:38 29° ESE 19:23:27 10° NE
Cosmos 1025 Rocket 4.2 19:19:59 10° NNW 19:24:04 44° W 19:28:06 10° SSW
BREEZE-M DEB (TANK) 4.3 19:20:45 10° WNW 19:24:46 42° N 19:31:48 14° ENE
ISS -2.3 19:22:57 10° SSW 19:24:54 22° SSE 19:24:54 22° SSE
Cosmos 405 Rocket 3.2 19:26:20 31° ESE 19:26:49 33° E 19:30:10 10° NNE
Cosmos 1190 Rocket 4.5 19:22:27 10° N 19:27:30 43° ENE 19:30:01 26° ESE
DELTA 2 R/B (1) 4.4 19:23:25 10° SW 19:28:21 32° SSE 19:30:21 25° ESE
GEOS 3 Rocket 3.9 19:25:25 12° SSE 19:30:12 65° SW 19:35:19 10° NW
FAST 4.5 19:31:17 10° S 19:34:46 78° E 19:37:27 10° N
Cosmos 389 Rocket 2.5 19:31:41 10° N 19:35:04 54° ENE 19:35:43 45° ESE
Nadezhda 1 Rocket 4.3 19:30:20 10° SSW 19:36:20 66° W 19:42:24 10° N
Cosmos 1892 Rocket 3.7 19:32:38 10° N 19:36:59 50° ENE 19:38:37 33° SE
NOSS 0 Rocket 3.9 19:32:16 10° NNW 19:38:31 83° ENE 19:42:55 21° SSE
SJ-11-01 4.4 19:34:57 10° S 19:39:42 80° WSW 19:44:28 10° NNW
Cosmos 2333 Rocket 2.8 19:34:22 10° NNW 19:39:57 57° WSW 19:45:32 10° S
Cosmos 962 Rocket 4.4 19:35:26 10° N 19:41:46 79° E 19:48:08 10° S
Okean 1-7 Rocket 3.6 19:38:30 10° N 19:42:54 60° E 19:44:39 34° SE
Cosmos 1295 Rocket 4.5 19:42:11 10° N 19:48:23 82° W 19:54:29 10° S
In-Cosmos 22 4.0 19:43:59 10° N 19:49:21 73° E 19:52:32 25° SSE
Cosmos 2237 Rocket 2.2 19:44:17 10° NNW 19:50:00 70° ENE 19:52:30 34° SE
Cosmos 2056 Rocket 3.5 19:48:57 10° S 19:54:20 70° ESE 19:59:44 10° NNE
Meteor 1-4 Rocket 2.3 19:52:09 10° N 19:55:34 73° NE 19:55:34 73° NE
CZ-2C R/B 3.3 19:55:02 41° ESE 19:56:14 49° ENE 20:01:30 10° N
Meteor 2-5 Rocket 3.9 19:50:50 10° N 19:56:35 57° ENE 19:58:36 38° SE
Cosmos 614 Rocket 3.9 19:52:57 10° NNW 19:58:12 83° ENE 20:00:10 39° SSE
Cosmos 1674 4.1 19:55:14 10° N 19:57:13 25° NNE 19:57:13 25° NNE
NOSS 3-4 (A) 3.9 19:51:53 10° NW 19:58:59 79° WSW 20:03:35 27° SSE
NOSS 3-4 (C) 3.9 19:52:00 10° NW 19:59:05 80° WSW 20:03:39 27° SSE
Cosmos 1980 3.6 19:53:26 10° NNW 19:59:08 87° ENE 20:01:33 36° SSE
Cosmos 407 Rocket 3.3 19:54:37 10° NNW 19:59:47 89° ENE 20:01:45 39° SSE
Cosmos 1624 Rocket 3.9 20:01:16 10° SSW 20:06:28 89° WNW 20:11:42 10° NNE
Cosmos 1707 4.3 20:05:10 10° NNW 20:08:44 34° W 20:11:45 13° SSW
SJ-6B 4.0 20:07:47 20° SSW 20:10:20 43° W 20:14:16 10° NNW
Meteor 1-22 Rocket 4.5 20:10:15 47° SE 20:11:17 53° E 20:17:12 10° NNE
SPOT 3 Rocket 4.3 20:11:52 16° S 20:15:49 49° W 20:20:50 10° NNW
Cosmos 1544 Rocket 3.5 20:16:56 78° NE 20:16:56 78° NE 20:21:13 10° N
Cosmos 2341 Rocket 4.4 20:10:37 10° NNW 20:16:46 62° W 20:22:18 13° S
Cosmos 1455 Rocket 3.1 20:16:22 51° SSW 20:17:27 80° W 20:21:56 10° N
Cosmos 2181 Rocket 4.0 20:11:30 10° S 20:17:43 80° W 20:24:05 10° N
SL-16 R/B 2.5 20:14:26 10° NNW 20:19:56 48° ENE 20:20:07 48° ENE
Cosmos 1954 Rocket 3.9 20:15:53 10° NNW 20:21:07 69° ENE 20:21:17 68° E
Spot 2 Rocket 3.8 20:23:09 48° NE 20:23:09 48° NE 20:27:28 10° N
ADEOS Rocket 3.6 20:17:40 10° NNE 20:25:01 82° WNW 20:32:46 10° SSW
Cosmos 2219 Rocket 4.2 20:22:00 10° NW 20:26:23 24° WSW 20:30:45 10° SSW
Cosmos 1140 Rocket 3.4 20:21:44 10° NNW 20:26:56 80° WSW 20:27:31 69° S
Cosmos 2082 4.0 20:34:48 53° NE 20:34:48 53° NE 20:39:14 10° NNE
SL-08 RB Rocket 4.1 20:35:27 57° SW 20:35:51 59° W 20:40:29 10° NNW
Cosmos 2218 Rocket 4.1 20:30:22 10° NNW 20:36:44 73° W 20:39:05 41° SSW
Resurs 1-3 4.3 20:37:58 48° WSW 20:38:11 48° W 20:42:27 10° NNW
CZ-2C R/B 3.9 20:33:58 10° NNE 20:36:52 30° NE 20:36:52 30° NE
Cosmos 2366 rocket 4.2 20:35:14 10° NNW 20:41:35 72° W 20:43:36 45° SSW
ATLAS 2AS CENTAUR R/B 4.3 20:35:42 10° NW 20:42:02 30° WSW 20:46:25 16° SSW
Resurs 01 Rocket 2.2 20:43:17 55° WNW 20:43:17 55° WNW 20:47:15 10° NNW
H-2A R/B 3.3 20:45:01 25° SW 20:46:56 34° W 20:51:29 10° NNW
Cosmos 1821 Rocket 4.4 20:44:33 10° N 20:49:26 47° NE 20:49:26 47° NE
Cosmos 2227 Rocket 2.8 20:45:55 10° SW 20:51:27 55° WNW 20:57:03 10° NNE
Cosmos 676 Rocket 4.4 20:47:34 10° NNW 20:52:35 59° W 20:52:35 59° W
MetOp-B 4.4 20:54:15 65° N 20:54:15 65° N 20:58:48 10° NNW
Cosmos 2297 Rocket 3.2 20:57:06 10° SW 21:02:28 43° WNW 21:07:52 10° NNE
Cosmos 2237 Rocket 4.3 21:29:46 10° WNW 21:33:24 18° W 21:34:22 17° WSW
Terra 4.2 21:45:28 18° N 21:45:28 18° N 21:46:40 10° N
USA 234 4.3 22:00:33 37° NNE 22:00:33 37° NNE 22:06:02 10° NW
SL-16 R/B 4.2 21:59:06 10° NW 22:02:00 22° WNW 22:02:00 22° WNW
CZ-4C R/B 4.3 22:26:33 10° NNW 22:31:37 27° NNE 22:31:37 27° NNE
